Regional Weather Roundup
Issued by NWS

Home | Current Version | Previous Version | Text Only | Print | Product List | Glossary Off
Versions: 1 2 3 4 5 6 7 8 9 10 11 12 13 14 15 16 17 18 19 20 21 22 23 24 25 26 27 28 29

000
ASUS45 KCYS 240310
RWRWY

WYOMING REGIONAL WEATHER ROUNDUP
NATIONAL WEATHER SERVICE CHEYENNE WY
900 PM MDT THU OCT 23 2014

NOTE:  "FAIR" INDICATES FEW OR NO CLOUDS BELOW 12,000 FEET
WITH NO SIGNIFICANT WEATHER AND/OR OBSTRUCTIONS TO VISIBILITY.

WYZ001-240400-
YELLOWSTONE NATIONAL PARK

CITY           SKY/WX    TMP DP  RH WIND       PRES   REMARKS
LK YELLOWSTONE   N/A     42  28  57 VRB5      30.17
W YELLOWSTONE  NOT AVBL

$$
WYZ002>013-054>058-071-098>099-240400-
NORTHERN WYOMING

CITY           SKY/WX    TMP DP  RH WIND       PRES   REMARKS
JACKSON        CLOUDY    46  28  49 S7        30.12S
CODY           MOCLDY    55  27  33 CALM      29.98
GREYBULL       MOCLDY    50  25  37 CALM      29.92R
WORLAND        MOCLDY    50  27  40 SW8       29.93R
SHERIDAN       PTCLDY    43  33  68 S3        29.92R
BUFFALO        MOCLDY    51  26  37 N7        29.96F
GILLETTE       MOCLDY    50  29  44 S6        29.94S
HULETT         FAIR      46  30  53 S10       29.95
NEWCASTLE      FAIR      46  28  49 CALM      29.97

$$
WYZ014>020-022>026-101>103-240400-
CENTRAL WYOMING

CITY           SKY/WX    TMP DP  RH WIND       PRES   REMARKS
BIG PINEY      CLOUDY    46  22  38 NW3       30.19S
PINEDALE       CLOUDY    43  30  61 SE3       30.19
DUBOIS         FAIR      50  21  32 NW18G26   30.09F
LANDER         MOCLDY    56  23  27 MISG      30.01R
RIVERTON       MOCLDY    57  22  25 S6        30.02S
CASPER         PTCLDY    53  24  32 SW9       30.03F
DOUGLAS        CLOUDY    60  24  25 W5        30.03S

$$
WYZ021-027>030-104>119-240400-
SOUTHERN WYOMING

CITY           SKY/WX    TMP DP  RH WIND       PRES   REMARKS
EVANSTON       MOCLDY    50  25  37 SW10      30.19S
KEMMERER       CLOUDY    46  23  39 CALM      30.19F
FORT BRIDGER   FAIR      55  24  30 W8        30.22S
ROCK SPRINGS   MOCLDY    49  27  42 S6        30.19S
DIXON          FAIR      42  36  79 CALM      30.25R
RAWLINS        PTCLDY    51  29  42 W13       30.18F
SARATOGA       FAIR      52  32  46 SW13      30.22S
LARAMIE        MOCLDY    51  27  39 SW3       30.21R
CHEYENNE       CLOUDY    53  30  41 CALM      30.14F
TORRINGTON     MOCLDY    56  30  37 CALM      30.01S
PINE BLUFFS    FAIR      52  34  50 SW8       30.10S

$$



USA.gov is the U.S. government's official web portal to all federal, state and local government web resources and services.